Location: Nashville
(36.1660°N, 86.7840°W)
Time: 04:49:52
(UTC-05:00)

AO-92 - Pass Details

Date: 23 May 2022
Orbit: 472 x 481 km, 97.4° (Epoch: 26 June)

Event Time Altitude Azimuth Distance (km) Brightness Sun altitude
Exits shadow 22:41:53 28° 14° (NNE) 934 ? -26.2°
Drops below altitude 10° 22:43:44 10° 360° (N) 1,648 ? -26.4°
Sets 22:45:50 0° 355° (N) 2,529 ? -26.6°
